Other Public Products
Issued by NWS Grand Forks, ND

Home | Current Version | Previous Version | Graphics & Text | Print | Product List | Glossary On
Versions: 1 2 3 4 5 6 7 8 9 10 11 12 13 14 15 16 17 18 19 20 21 22 23 24 25 26 27 28 29 30 31 32 33 34 35 36 37 38 39 40 41 42 43 44 45 46 47 48 49 50
000
FPUS83 KFGF 311710
OPUFGF
PRAIRIE TO PINES WEATHER ROUNDUP
NATIONAL WEATHER SERVICE EASTERN NORTH DAKOTA/GRAND FORKS ND
1100 AM CST SAT JAN 31 2015

 **SATELLITE DATA USED TO AUGMENT SKY COVER AT AUTOMATED STATIONS**
 *****  WEATHER ACROSS EASTERN NORTH DAKOTA  *****

CITY           SKY/WX    TMP DP  RH WIND       PRES   REMARKS
GRAND FORKS    PTSUNNY    3  -7  63 N21G28    30.47R WCI -18
GRAND FORKS AF MOSUNNY    2  -9  60 NE20G25   30.46R WCI -19
GRAND CITY NWS   N/A      3 N/A N/A VRB16       N/A  WCI -16
BUXTON         NOT AVBL
DEVILS LAKE    MOSUNNY    1  -8  66 NE16      30.39R WCI -18
FARGO          SUNNY     11  -1  58 N21G28    30.38R WCI  -8
WAHPETON ARPT  SUNNY     16   3  57 N21       30.31F WCI  -2
$$

 *****  WEATHER ACROSS CENTRAL AND WESTERN NORTH DAKOTA  *****

CITY           SKY/WX    TMP DP  RH WIND       PRES   REMARKS
JAMESTOWN      PTSUNNY   11   4  73 NE16      30.33R WCI  -6
BISMARCK       LGT SNOW  13   7  77 E18       30.29R WCI  -4
MINOT          LGT SNOW   5  -1  76 NE12      30.37S WCI -11
MINOT AFB      LGT SNOW   4   1  87 NE15      30.38S FOG     WCI -15
GARRISON         N/A      9   2  73 E17G23    30.31R WCI  -9
WILLISTON      LGT SNOW  11   5  77 E15G25    30.29R WCI  -5
DICKINSON      LGT SNOW  18  14  84 E18       30.14R FOG     WCI   2
HETTINGER      FRZ RAIN  21  19  92 E17G25    30.11R VSB 3/4 WCI   7
$$

 *****  OTHER OBSERVATIONS NORTHEAST NORTH DAKOTA  *****

CITY           SKY/WX    TMP DP  RH WIND       PRES   REMARKS
WALHALLA         N/A     -4  -9  77 N17       30.54R WCI -26
LANGDON        NOT AVBL
CAVALIER       CLOUDY    -4 -11  71 N16G28    30.53R WCI -25
GRAFTON        NOT AVBL
CANDO          CLOUDY     0  -8  71 NE17G23   30.44R WCI -21
FORT TOTTEN      N/A      4  -5  65 NE7       29.95S WCI  -8
ROLLA          FAIR      -4  -8  84 NE21      30.41R FOG     WCI -28
RUGBY          FAIR       0  -4  85 NE18      30.41R WCI -22
 ***** THE ABOVE OBSERVATIONS ARE NON NWS ARE NOT QUALITY
        CONTROLLED AND MAY MIS-REPORT RAIN FOR SNOW...
$$

 *****  OTHER OBSERVATIONS SOUTHEAST NORTH DAKOTA *****

CITY           SKY/WX    TMP DP  RH WIND       PRES   REMARKS
COOPERSTOWN    NOT AVBL
VALLEY CITY    FAIR       9   1  72 NE23G29   30.34R WCI -12
OAKES            N/A     10   0  61 N25G31    30.30R WCI -10
GWINNER        SUNNY     14   1  57 NE24      30.31R WCI  -5
SHEYENNE NWR     N/A     11  -2  55 NE17      29.95S WCI  -6
BUFFALO        NOT AVBL
WYNDMERE         N/A     12   1  62 N16         N/A  WCI  -4
 ***** THE ABOVE OBSERVATIONS ARE NON NWS ARE NOT QUALITY
       CONTROLLED AND MAY MIS-REPORT RAIN FOR SNOW...
$$

  *****  WEATHER ACROSS NORTHERN MINNESOTA  *****

CITY           SKY/WX    TMP DP  RH WIND       PRES   REMARKS
FLAG ISLAND    SUNNY     -6 -11  77 NW15      30.42R WCI -27
WARROAD        SUNNY      0 -11  60 N10       30.43R WCI -17
ROSEAU         SUNNY      0  -9  65 N13       30.43S WCI -18
HALLOCK        MOSUNNY   -2 -11  65 N18G24    30.49R WCI -24
THF RVR FALLS  SUNNY      1  -8  66 N13       30.41R WCI -16
HALSTAD          N/A     10  -4  54 N21         N/A  WCI -10
FOSSTON        SUNNY      9   0  66 N17       30.36R WCI -10
BAUDETTE       MOSUNNY   -1  -8  72 N15       30.38R WCI -21
WASKISH        SUNNY      5  -2  72 N9        30.35R WCI  -9
CROOKSTON      SUNNY      5  -6  61 NE17      30.44S WCI -14
$$
  *****  WEATHER ACROSS CENTRAL AND WEST MINNESOTA  *****

CITY           SKY/WX    TMP DP  RH WIND       PRES   REMARKS
BEMIDJI        SUNNY      6  -5  59 N9        30.31R WCI  -8
PARK RAPIDS    MOSUNNY   15  -6  39 N13G20    30.27R WCI   1
WADENA         MOSUNNY   19   1  45 N14G20    30.25S WCI   6
DETROIT LAKES  MOSUNNY   12   5  73 N6        30.30R WCI   3
MOORHEAD       SUNNY     12   1  62 N20G26    30.37R WCI  -6
FERGUS FALLS   MOSUNNY   16   7  67 N12       30.31S WCI   3
ELBOW LAKE     CLOUDY    19  14  81 N13G20    30.24S WCI   6
MORRIS MN      CLOUDY    21  18  86 N14       30.23S WCI   8
STAPLES        MOSUNNY   19  10  68 N10       30.25R WCI   8
WHEATON        CLOUDY    14   9  79 N17       30.30S WCI  -3
$$
  *****  WEATHER ELSEWHERE ACROSS MINNESOTA  *****

CITY           SKY/WX    TMP DP  RH WIND       PRES   REMARKS
DULUTH         MOSUNNY   18   6  59 N13       30.20R WCI   5
INTRNTL FALLS  CLOUDY     6  -2  69 NE10      30.34R HAZE    WCI  -9
ELY            PTSUNNY   10   1  67 NW10G18   30.24R WCI  -3
CLOQUET        SUNNY     18   9  68 N9G17     30.22R WCI   6
BRAINERD       CLOUDY    20   8  60 N14       30.25R WCI   7
HIBBING        MOSUNNY   14   4  64 NW12      30.25R WCI   0
ALEXANDRIA     CLOUDY    22  15  75 NE14      30.23R WCI   9
SAINT CLOUD    CLOUDY    26  18  71 NE8G17    30.22R WCI  18
MINNEAPOLIS    CLOUDY    28  21  75 N9        30.21R WCI  19
$$

  *****  WEATHER ACROSS SOUTH DAKOTA  *****

CITY           SKY/WX    TMP DP  RH WIND       PRES   REMARKS
SIOUX FALLS    CLOUDY    26  24  92 NE15      30.13F FOG     WCI  14
BROOKINGS      NOT AVBL
WATERTOWN      CLOUDY    17  15  92 NE18      30.18R FOG     WCI   1
HURON          CLOUDY    23  19  85 NE15      30.19R WCI  10
SISSETON       NOT AVBL
ABERDEEN       CLOUDY    16   9  74 NE17G29   30.26R WCI   0
MITCHELL       CLOUDY    26  24  92 NE16      30.16R FOG     WCI  14
PIERRE         CLOUDY    22  20  92 E20       30.14S FOG     WCI   7
MOBRIDGE       CLOUDY    22  18  85 E13       30.18R WCI  10
RAPID CITY     CLOUDY    27  26  96 SE8       30.02S FOG     WCI  19
$$

  *****  SOME WEATHER IN NEARBY STATES *****

CITY           SKY/WX    TMP DP  RH WIND       PRES   REMARKS
GLASGOW MT     SNOW      17  12  80 E18G32    30.16R VSB 1/2 WCI   1
GREAT FALLS MT LGT SNOW  18  14  86 N25G36    30.19R VSB 3/4 WCI  -1
CHEYENNE WY    CLOUDY    31  25  78 N7        29.87F WCI  24
SCOTTSBLUFF NE LGT SNOW  33  29  85 NE3       29.93F FOG
OMAHA NE       LGT SNOW  34  33  96 S10       30.15S FOG
DES MOINES IA  DRIZZLE   39  34  82 SW10      30.19S
DAVENPORT IA   CLOUDY    35  27  72 W14       30.22S
CHICAGO IL     PTSUNNY   33  21  61 W13       30.20F WCI  24
EAU CLAIRE WI  CLOUDY    26  18  71 NE5       30.19R WCI  20
LA CROSSE WI   CLOUDY    29  19  66 CALM      30.20R
$$

  *****  SOME NATIONAL WEATHER *****

CITY           SKY/WX    TMP DP  RH WIND       PRES   REMARKS
LA GUARDIA NY  SUNNY     21   2  43 NW24G33   30.12F WCI   4
RALEIGH NC     PTSUNNY   40   3  21 VRB7      30.36F
ATLANTA GA     PTSUNNY   46  17  31 CALM      30.37F
NEW ORLEANS LA MOSUNNY   59  43  55 NE12      30.30F
OKLAHOMA CITY  LGT RAIN  41  36  82 S14       30.16S
ALBUQUERQUE NM LGT RAIN  35  34  96 NW3       29.93F FOG
SALT LAKE CITY PTSUNNY   38  30  73 NW3       30.03R
LOS ANGELES CA PTSUNNY   60  55  83 E5        29.91R
BOISE ID       SUNNY     32  27  81 CALM      30.18R
SEATTLE WA     FOG       39  38  96 NE6       30.24S VSB 1/8
$$

*** WEATHER ACROSS MANITOBA...SASKATCHEWAN AND ONTARIO ***
                ***ONTARIO***

CITY           SKY/WX    TMP DP  RH WIND       PRES   REMARKS
GERALDTON      FLURRIES  -6 -15  65 N10G18    30.21R WCI -23
THUNDER BAY    MOSUNNY   10  -4  52 N14G21    30.28R WCI  -5
SIOUX LOOKOUT  MOSUNNY   -9 -20  59 NW8       30.36R WCI -26
TORONTO        PTSUNNY   19  10  68 SW9       30.25F WCI   9
BIG TROUT LK   CLOUDY   -24 -33  62 NW15      30.34S HAZE    WCI -50
PICKLE LAKE    CRYSTALS -17 -27  58 NW10      30.32R WCI -37
DRYDEN         FLURRIES  -6 -18  54 NE12G17   30.36R WCI -24
KENORA         NOT AVBL
$$
                *** MANITOBA***

CITY           SKY/WX    TMP DP  RH WIND       PRES   REMARKS
BRANDON        PTSUNNY   -9 -18  64 NE17      30.54R WCI -33
DAUPHIN        SUNNY    -15 -22  70 NE8       30.64R WCI -32
ISLAND LAKE    SUNNY    -24 -31  69 W12       30.50R WCI -47
PILOT MOUND      N/A     -9 -18  64 N15G22      N/A  WCI -31
THE PAS        MOSUNNY  -20 -27  69 NW9       30.66R WCI -40
THOMPSON       CRYSTALS -24 -33  62 NW9G17    30.55R WCI -45
WINNIPEG       CRYSTALS -11 -18  70 N17       30.58R WCI -35
LYNN LAKE      SUNNY    -24 -33  62 NW9G17    30.53R WCI -45
CHURCHILL      SUNNY    -22 -29  69 NW23      30.34S BLWGSNOWWCI -53
GILLAM         SUNNY    -24 -33  62 W13G18    30.44R WCI -48
$$
                ***SASKATCHEWAN***

CITY           SKY/WX    TMP DP  RH WIND       PRES   REMARKS
ESTEVAN        LGT SNOW   3  -2  78 E18G25    30.38R DRFTSNOWWCI -17
KINDERSLEY     CLOUDY    -4  -9  77 NE10      30.50R WCI -21
LLOYDMINSTER   CLOUDY    -9 -17  70 E6        30.53S WCI -23
PRINCE ALBERT  NOT AVBL
REGINA         MOSUNNY    0  -8  71 E14       30.45R WCI -19



USA.gov is the U.S. government's official web portal to all federal, state and local government web resources and services.